Regional Weather Roundup
Issued by NWS Upton, NY

Home | Current Version | Previous Version | Text Only | Print | Product List | Glossary On
Versions: 1 2 3 4 5 6 7 8 9 10 11 12 13 14 15 16 17 18 19 20 21 22 23 24 25 26 27 28 29 30 31 32 33 34 35 36 37 38 39 40 41 42 43 44 45 46 47 48 49 50
000
ASUS41 KOKX 220505
RWROKX

REGIONAL WEATHER ROUNDUP
NATIONAL WEATHER SERVICE NEW YORK NY
100 AM EDT MON SEP 22 2014

NOTE: "FAIR" INDICATES FEW OR NO CLOUDS BELOW 12,000 FEET WITH NO
SIGNIFICANT WEATHER AND/OR OBSTRUCTIONS TO VISIBILITY.

NYZ071-072-176-178-NJZ106-104-220600-
NEW YORK CITY METRO AREA


CITY           SKY/WX    TMP DP  RH WIND       PRES   REMARKS
CENTRAL PARK   LGT RAIN  70  66  87 W6        29.67R
LAGUARDIA APRT LGT RAIN  72  66  81 NW5       29.63R
KENNEDY INTL   LGT RAIN  71  67  87 W14G22    29.65R
NEWARK/LIBERTY CLOUDY    70  67  90 W9        29.65R
BRNX BOT. GARD   N/A     70  64  83 NE6       29.64S
TETERBORO      RAIN      70  62  76 N7        29.63R
$$

NYZ177-179-078>081-220600-
LONG ISLAND NEW YORK

CITY           SKY/WX    TMP DP  RH WIND       PRES   REMARKS
FARMINGDALE    CLOUDY    71  68  90 W9        29.64R
ISLIP          CLOUDY    70  68  93 W9        29.61R
SHIRLEY        CLOUDY    70  68  93 SW8       29.63S
WESTHAMPTON    MOCLDY    70  68  93 SW9       29.63S
MONTAUK POINT    N/A     68  66  93 SW6       29.62S
$$

NYZ052-065-067-220600-
HUDSON VALLEY

CITY           SKY/WX    TMP DP  RH WIND       PRES   REMARKS
WHITE PLAINS   MOCLDY    68  64  87 W10       29.64R
NEWBURGH       CLOUDY    63  63 100 W7        29.66R
MONTGOMERY     CLOUDY    63  61  93 W6        29.65S
POUGHKEEPSIE   CLOUDY    66  62  87 CALM      29.63R
ALBANY         LGT RAIN  61  57  87 SE3       29.63R
$$

NJZ001-105-106-008-010-013-015-019>022-104-220600-
NEW JERSEY

CITY           SKY/WX    TMP DP  RH WIND       PRES   REMARKS
NEWARK/LIBERTY CLOUDY    70  67  90 W9        29.65R
TETERBORO      RAIN      70  62  76 N7        29.63R
CALDWELL       CLOUDY    68  60  75 NW6       29.66R
MORRISTOWN     CLOUDY    70  61  73 NW3       29.66R
SOMERVILLE     CLOUDY    69  64  84 N6        29.65R
LINDEN         CLOUDY    73  70  88 NW6       29.67R
SUSSEX         CLOUDY    65  61  87 SW3       29.67S
ANDOVER          N/A     63  62  97 CALM      29.69R
TRENTON        MOCLDY    69  57  65 W6        29.66R
MILLVILLE      MOCLDY    68  64  87 W5        29.70R
ATLANTIC CITY  CLOUDY    69  65  86 SW5       29.68F
WRIGHTSTOWN    CLOUDY    69  64  84 W8        29.65R
TOMS RIVER     CLOUDY    68  64  88 SW3       29.66F
BELMAR         MOCLDY    68  61  77 SW6       29.65S
$$

PAZ047>061-062-071-220600-
EASTERN PENNSYLVANIA

CITY           SKY/WX    TMP DP  RH WIND       PRES   REMARKS
PHILADELPHIA   MOCLDY    73  61  65 W14       29.69R
ALLENTOWN      MOCLDY    67  60  78 NW3       29.69R
SCRANTON       PTCLDY    62  58  86 W5        29.71R
$$

CTZ002-004>006-009-010-012-RIZ004-006-007-MAZ004-011-015-220600-
SOUTHERN NEW ENGLAND
 IN CT

CITY           SKY/WX    TMP DP  RH WIND       PRES   REMARKS
BRADLEY INTL   MOCLDY    68  65  90 SW6       29.59R
HARTFORD       PTCLDY    67  66  97 S3        29.59S
DANBURY        LGT RAIN  65  63  93 W7        29.65R FOG
WTRBRY/OXFORD  CLOUDY    66  63  88 W5        29.65R
BRIDGEPORT     MOCLDY    69  68  96 W5        29.61R
MERIDEN        PTCLDY    65  64  97 S5        29.61R FOG
NEW HAVEN      PTCLDY    71  68  90 SW6       29.61S
CHESTER        CLOUDY    68  68 100 SW7       29.62S FOG
GROTON         FOG       68  68 100 SW6       29.59S VSB 1/2
WILLIMANTIC    CLOUDY    68  67  96 MISG      29.60S

 IN RI

CITY           SKY/WX    TMP DP  RH WIND       PRES   REMARKS
PROVIDENCE     CLEAR     66  65  96 SW7       29.59R
BLOCK ISLAND   CLOUDY    68  64  88 SW9       29.60F VSB 3/4
WESTERLY       FOG       68  67  96 SW5       29.60F VSB 3/4

 IN MA

CITY           SKY/WX    TMP DP  RH WIND       PRES   REMARKS
BOSTON         PTCLDY    69  68  96 SW7       29.54F
WORCESTER      CLOUDY    66  65  96 SW13      29.59F
WESTFIELD      CLOUDY    67  58  72 NW7       29.60R
PROVINCETOWN   CLOUDY    66  63  88 SW7       29.54F VSB 3/4
NANTUCKET      CLOUDY    67  66  97 W10       29.56S
$$

ANZ330-335-338-340-345-350-353-355-220600-
COASTAL MARINE OBSERVATIONS


STATION/POSITION TIME  SKY/WX   TEMP    WIND        PRES    VSBY  WAVE
                                AIR SEA DIR/SP/G                  HT/PER
                 (UTC)          (F)     (DEG/KT/KT) (MB)    (MI)  (FT/S)
NY HARB ENTRANCE 0500            72 71  250/ 14/ 17 1003.8          3/ 8
4S FIRE IS       0500               70                N/A           3/ 7
20S FIRE ISLAND  0500            70 69  230/ 12/ 16 1004.1          3/ 8
23SW MTP         0500                                 N/A           4/ 8
HUDSON CANYON    0500            70 70  240/ 10/ 12 1004.5          5/ 8
EXECUTION ROCKS  0500            71 70  290/  8/ 10   N/A
WESTERN LI SOUND 0500            71     270/  8/ 10   N/A           0
CENTRAL LI SOUND 0400            68 71  220/ 10/ 12   N/A           1
EASTERN LI SOUND 0400            69 68  250/  6/  6   N/A
ROBBINS REEF     0500            71     280/ 18/ 22 1002.3
$$


>>>>>>>>>>>>>>>>>>>>>>>>>>>> KEY <<<<<<<<<<<<<<<<<<<<<<<<<<<
>                                                          <
>     SKY/WX - SKY CONDITION/PRESENT WEATHER               <
>     TMP    - TEMPERATURE IN FAHRENHEIT                   <
>     DP     - DEWPOINT IN FAHRENHEIT                      <
>     RH     - RELATIVE HUMIDITY IN PERCENT                <
>     WIND   - DIRECTION AND SPEED IN MPH                  <
>     PRES   - MEAN SEA LEVEL PRESSURE IN INCHES OF HG     <
>     WCI    - WIND CHILL INDEX                            <
>     VSB    - VISIBILITY IN MILES                         <
>     HX     - HEAT INDEX                                  <
>     TC     - TEMPERATURE IN CELSIUS                      <
>     VRB    - VARIABLE WIND DIRECTION                     <
>                                                          <
>>>>>>>>>>>>>>>>>>>>>>>>>>>> KEY <<<<<<<<<<<<<<<<<<<<<<<<<<<





USA.gov is the U.S. government's official web portal to all federal, state and local government web resources and services.